Home   Weather   Yarmouth County   Past weeks

Flag for Canada Past Weather in Yarmouth County, Nova Scotia, Canada — Yesterday and Last 2 Weeks

Now
48 °F

Drizzle. Fog.


Feels Like: 46 °F
Forecast: 44 / 50 °F
Wind: 6 mph from South

Location: Yarmouth

Current Time: Apr 28, 2017 at 3:39:05 am

Latest Report: Apr 28, 2017 at 3:00 am


Visibility: 0 mi

Pressure: 30.02 "Hg

Humidity: 100%

Dew Point: 48 °F

Location of Yarmouth CountyLocation

Past Weather in Yarmouth County — Graph

°F

Yarmouth County Temperature Yesterday

Maximum temperature yesterday: 59 °F (at 12:31 pm)
Minimum temperature yesterday: 50 °F (at 8:00 pm)
Average temperature yesterday: 55 °F

High & Low Weather Summary for the Past Weeks

 TemperatureHumidityPressure
High61 °F (Apr 26, 5:00 pm)100% (Apr 13, 3:06 am)30.64 "Hg (Apr 13, 3:06 am)
Low28 °F (Apr 19, 5:00 am)35% (Apr 19, 12:00 pm)29.60 "Hg (Apr 17, 3:00 am)
Average44 °F85%30.14 "Hg
* Reported Apr 13 2:00 am — Apr 28 2:25 am, Yarmouth County, Weather by CustomWeather, © 2017

Note: Actual official high and low records may vary slightly from our data, if they occured in-between our weather recording intervals... More about our weather records

Advertising

Yarmouth County Weather History for the Previous 24 Hours

Scroll right to see more
 ConditionsComfort  
Time TempWeatherWind HumidityBarometerVisibility
2:25 am
Fri, Apr 28
48 °FDrizzle. Fog.8 mph100%30.02 "Hg1 mi
2:06 am48 °FDrizzle. Fog.8 mph100%30.02 "Hg0 mi
1:03 am48 °FDrizzle. Fog.7 mph100%30.01 "Hg1 mi
12:11 am50 °FFog.8 mph100%30.00 "Hg1 mi
12:00 am50 °FFog.8 mph100%30.00 "Hg1 mi
11:37 pm
Thu, Apr 27
52 °FFog.8 mph100%29.99 "Hg1 mi
11:00 pm50 °FFog.10 mph100%30.00 "Hg1 mi
10:00 pm50 °FFog.8 mph100%30.00 "Hg0 mi
9:00 pm50 °FFog.12 mph100%30.00 "Hg0 mi
8:00 pm50 °FFog.9 mph100%30.01 "Hg0 mi
7:00 pm52 °FFog.15 mph100%30.00 "Hg0 mi
6:00 pm54 °FFog.16 mph100%29.99 "Hg0 mi
5:00 pm55 °FFog.15 mph100%29.99 "Hg1 mi
4:00 pm57 °FFog.14 mph100%30.00 "Hg2 mi
3:35 pm57 °FFog.12 mph100%30.00 "Hg1 mi
3:10 pm57 °FFog.14 mph100%30.01 "Hg2 mi
2:47 pm57 °FSprinkles. Fog.14 mph94%30.01 "Hg3 mi
2:39 pm57 °FFog.14 mph100%30.01 "Hg6 mi
2:00 pm57 °FFog.15 mph100%30.02 "Hg3 mi
1:00 pm59 °FFog.13 mph100%30.03 "Hg3 mi
12:31 pm59 °FLow clouds.14 mph100%30.03 "Hg8 mi
12:00 pm55 °FFog.15 mph100%30.04 "Hg1 mi
11:00 am55 °FFog.16 mph100%30.03 "Hg0 mi
10:00 am55 °FFog.16 mph100%30.03 "Hg0 mi
9:00 am54 °FFog.13 mph100%30.03 "Hg0 mi
8:00 am55 °FFog.15 mph100%30.02 "Hg0 mi
7:43 am55 °FLight rain. Fog.18 mph100%30.02 "Hg1 mi
7:20 am55 °FDrizzle. Fog.15 mph100%30.01 "Hg0 mi
7:00 am55 °FFog.14 mph100%30.01 "Hg1 mi
6:13 am55 °FFog.16 mph100%30.00 "Hg1 mi
6:00 am55 °FLight rain. Fog.17 mph100%30.01 "Hg1 mi
5:45 am55 °FLight rain. Fog.17 mph100%30.00 "Hg1 mi
5:00 am55 °FFog.16 mph100%30.00 "Hg1 mi
4:00 am55 °FFog.17 mph100%30.01 "Hg1 mi
3:19 am55 °FDrizzle. Fog.17 mph100%30.01 "Hg2 mi
3:00 am55 °FLight rain. Fog.18 mph100%30.02 "Hg2 mi
Weather by CustomWeather, © 2017

See weather overviewHow to use our weather pages